[[{"header":{"parameterUnit":"m.s-1","parameterCategory":1,"la1":30.2991,"la2":30.254,"lo1":-89.0895,"lo2":-89.0444,"dy":0.0017,"dx":0.0017,"nx":28,"ny":28,"refTime":"2024-03-18T09:00:00:Z","depth":0,"parameterNumber":2,"parameterNumberName":"U-component_of_WINDS"},"data":[0,0,0,0,0,0,0,0,0,0,0,0,0,0,0,0,0,0,0,0,0,0,0,0,0,0,0,0,0,0,0,0,0,0,0,0,0,0,0,0,0,0,0,0,0,0,0,0,0,0,0,0,0,0,0,0,0,0,0.4792,0.4791,0,0.4738,0.4737,0.4736,0.4738,0.4739,0.474,0.474,0.4682,0.4679,0.4677,0,0,0,0,0,0,0,0,0,0,0,0,0,0.4895,0.4893,0.4792,0.4791,0.4791,0.4738,0.4737,0.4736,0.4738,0.4739,0.474,0.4741,0.4682,0.468,0.4677,0,0,0,0,0,0,0,0,0,0,0,0,0,0.4847,0.4893,0.4792,0.4785,0.4784,0.4738,0.4737,0.4736,0.4738,0.4739,0.474,0.4741,0.4683,0.468,0.4677,0.4633,0,0,0.4666,0.4665,0,0,0,0,0,0,0,0,0.4849,0.4843,0.4787,0.4786,0.4784,0.4746,0.4752,0.4701,0.4738,0.4755,0.474,0.4742,0.4702,0.4697,0.4684,0.463,0.4628,0.4666,0.4664,0.4662,0.4661,0,0,0,0,0,0,0,0.4853,0.4845,0.477,0.4786,0.4784,0.4784,0.4779,0.4742,0.4723,0.4754,0.4754,0.4748,0.4701,0.4688,0.4683,0.4627,0.4666,0.4663,0.4661,0.466,0.4535,0.4533,0,0,0,0,0,0,0.4858,0.4848,0.4772,0.4769,0.482,0.4781,0.4775,0.4757,0.4723,0.4719,0.4747,0.4748,0.4693,0.4687,0.4681,0.4627,0.4662,0.4659,0.4657,0.4536,0.4534,0.4533,0,0,0,0,0,0,0.486,0.4851,0.4774,0.4808,0.4799,0.4778,0.4758,0.4755,0.4742,0.4718,0.4714,0.4736,0.4693,0.4686,0.4645,0.4625,0.4658,0.4655,0.4537,0.4535,0.4534,0.452,0,0,0,0,0,0,0.4863,0.4852,0.4835,0.4808,0.4797,0.474,0.4757,0.4753,0.4736,0.4737,0.4707,0.4703,0.4694,0.465,0.4642,0.4621,0.4652,0.4539,0.4536,0.4534,0.4522,0.4518,0.4514,0,0,0,0,0,0.4867,0.4833,0.4835,0.4825,0.4776,0.4739,0.4732,0.4723,0.4734,0.4717,0.4702,0.4704,0.4629,0.4646,0.4637,0.4615,0.454,0.4537,0.4534,0.4524,0.4519,0.4514,0,0,0,0,0,0,0.4857,0.4829,0.4831,0.4787,0.4766,0.4739,0.4717,0.4718,0.4692,0.4694,0.4683,0.4676,0.4635,0.4621,0.464,0.4571,0.4586,0.4581,0.4581,0.4576,0.4572,0.4576,0.4649,0,0,0,0,0,0.485,0.4824,0.48,0.4764,0.4753,0.4737,0.4721,0.4716,0.4693,0.4683,0.4665,0.4642,0.4613,0.4594,0.4566,0.4521,0.4514,0.4501,0.4497,0.4494,0.4489,0.4464,0.4458,0.4523,0.4523,0.4523,0,0,0.4835,0.4817,0.48,0.4762,0.4744,0.4716,0.4729,0.4699,0.4677,0.4678,0.4639,0.4625,0.4598,0.4555,0.4535,0.4542,0.447,0.449,0.4488,0.4485,0.4461,0.4455,0.4449,0.4521,0.4522,0.4522,0,0,0.4793,0.4777,0.4745,0.4728,0.4702,0.4692,0.4684,0.4658,0.4649,0.461,0.461,0.4584,0.4535,0.4516,0.45,0.4453,0.4453,0.4444,0.4423,0.4398,0.4393,0.4389,0.4371,0.4365,0.444,0.444,0.444,0,0.4777,0.4735,0.4728,0.4698,0.4681,0.4682,0.4649,0.4632,0.4598,0.4586,0.4595,0.4534,0.4516,0.4468,0.4457,0.4444,0.4435,0.4446,0.4395,0.439,0.4386,0.4369,0.4362,0.4439,0.4439,0.4439,0.4439,0,0.4717,0.4688,0.4665,0.4634,0.4614,0.4583,0.457,0.4552,0.4549,0.4538,0.4498,0.4477,0.4445,0.4434,0.443,0.4386,0.4391,0.4397,0.4412,0.4379,0.4362,0.4356,0.4437,0.4438,0.4438,0.4438,0,0,0.4665,0.4631,0.4623,0.4609,0.4581,0.4558,0.4527,0.4497,0.4481,0.4458,0.4431,0.439,0.4397,0.4378,0.4373,0.4352,0.4315,0.4361,0.436,0.4352,0.4265,0.4259,0.4252,0.4316,0.4315,0.4314,0.4267,0,0.4619,0.4565,0.4558,0.4509,0.4482,0.4484,0.4456,0.4436,0.4425,0.44,0.4388,0.4359,0.437,0.4359,0.4339,0.4324,0.4297,0.4328,0.429,0.4289,0.4295,0.4243,0.4237,0.4193,0.426,0.4259,0.4259,0,0.4558,0.4535,0.4483,0.446,0.4449,0.4424,0.4397,0.4373,0.4351,0.4344,0.4325,0.4322,0.429,0.4307,0.4262,0.4283,0.4267,0.4258,0.4256,0.4251,0.4271,0.4236,0.4179,0.4172,0.4249,0.425,0.425,0,0.4525,0.448,0.4444,0.4432,0.4404,0.4387,0.4375,0.4353,0.4336,0.4312,0.43,0.4272,0.4257,0.4235,0.4225,0.4239,0.418,0.4197,0.4173,0.4173,0.4159,0.416,0.4098,0.4151,0.4152,0.4152,0.4152,0,0.4473,0.4442,0.4429,0.4406,0.4371,0.4364,0.4329,0.4317,0.4298,0.4273,0.4273,0.4249,0.4238,0.4212,0.4205,0.4168,0.4161,0.4154,0.4152,0.4154,0.4154,0.4142,0.4144,0.415,0.415,0.4151,0.4151,0,0.4429,0.4419,0.438,0.4357,0.4351,0.4326,0.4306,0.4284,0.4275,0.4243,0.4235,0.4219,0.419,0.4178,0.4141,0.4136,0.4094,0.4095,0.4101,0.41,0.4077,0.4079,0.4004,0.3994,0.4055,0.4054,0.4054,0,0.4397,0.4372,0.4348,0.4332,0.4319,0.4292,0.4275,0.4268,0.425,0.4223,0.4204,0.4175,0.4151,0.4103,0.4088,0.406,0.4059,0.4035,0.4055,0.4057,0.4058,0.4059,0.4056,0.4031,0.403,0.403,0.4029,0,0.4339,0.4336,0.4312,0.4286,0.4266,0.4245,0.4224,0.4211,0.42,0.418,0.415,0.4131,0.4095,0.4065,0.4037,0.4023,0.4024,0.4024,0.4016,0.4017,0.4021,0.4018,0.409,0.4025,0.4025,0.4026,0.4026,0.4026,0.4299,0.4278,0.4258,0.4231,0.4215,0.4196,0.4175,0.4163,0.4138,0.4108,0.4106,0.4073,0.4052,0.4014,0.4,0.3974,0.398,0.397,0.3967,0.3964,0.3962,0.4027,0.3969,0.3969,0.3969,0.3969,0.3969,0,0.4241,0.4229,0.4204,0.4176,0.4155,0.416,0.4138,0.4119,0.4091,0.4072,0.4049,0.4014,0.3986,0.397,0.3941,0.3924,0.3924,0.3917,0.3917,0.3914,0.3959,0.3967,0.3917,0.3917,0.3917,0.3917,0.3918,0.3918,0.4208,0.4173,0.4167,0.4124,0.4111,0.408,0.4067,0.405,0.4035,0.3997,0.3974,0.3964,0.3945,0.3916,0.389,0.3886,0.3875,0.3868,0.3864,0.3906,0.3911,0.3916,0.3924,0.3866,0.3866,0.3821,0.3821,0.382]},{"header":{"parameterUnit":"m.s-1","parameterCategory":1,"la1":30.2991,"la2":30.254,"lo1":-89.0895,"lo2":-89.0444,"dy":0.0017,"dx":0.0017,"nx":28,"ny":28,"refTime":"2024-03-18T09:00:00:Z","depth":0,"parameterNumber":3,"parameterNumberName":"V-component_of_WINDS"},"data":[0,0,0,0,0,0,0,0,0,0,0,0,0,0,0,0,0,0,0,0,0,0,0,0,0,0,0,0,0,0,0,0,0,0,0,0,0,0,0,0,0,0,0,0,0,0,0,0,0,0,0,0,0,0,0,0,0,0,-6.1196,-6.1197,0,-6.1305,-6.1306,-6.1307,-6.1235,-6.1231,-6.1228,-6.1225,-6.1332,-6.1338,-6.1344,0,0,0,0,0,0,0,0,0,0,0,0,0,-6.0922,-6.0927,-6.1196,-6.1197,-6.1198,-6.1304,-6.1306,-6.1307,-6.1235,-6.1231,-6.1227,-6.1223,-6.133,-6.1337,-6.1345,0,0,0,0,0,0,0,0,0,0,0,0,0,-6.1037,-6.0929,-6.1195,-6.1175,-6.1174,-6.1304,-6.1306,-6.1308,-6.1236,-6.1231,-6.1226,-6.1221,-6.1328,-6.1337,-6.1346,-6.15,0,0,-6.1373,-6.1377,0,0,0,0,0,0,0,0,-6.103,-6.1047,-6.1177,-6.1177,-6.1176,-6.1251,-6.1249,-6.1372,-6.1237,-6.1213,-6.1225,-6.1219,-6.1309,-6.1319,-6.135,-6.1505,-6.1509,-6.1374,-6.1379,-6.1383,-6.1385,0,0,0,0,0,0,0,-6.1023,-6.1042,-6.1238,-6.1179,-6.1178,-6.116,-6.117,-6.1272,-6.1287,-6.1214,-6.1209,-6.1223,-6.1308,-6.1342,-6.1352,-6.1511,-6.1373,-6.1381,-6.1387,-6.139,-6.1798,-6.1804,0,0,0,0,0,0,-6.1017,-6.1036,-6.1235,-6.1242,-6.109,-6.1169,-6.1181,-6.1232,-6.1286,-6.1289,-6.1228,-6.122,-6.1329,-6.1342,-6.1356,-6.1541,-6.1383,-6.1391,-6.1396,-6.1793,-6.18,-6.1805,0,0,0,0,0,0,-6.1011,-6.1035,-6.1231,-6.1138,-6.1161,-6.1179,-6.1237,-6.1237,-6.1271,-6.1296,-6.1298,-6.126,-6.1326,-6.1343,-6.1465,-6.1544,-6.1395,-6.1403,-6.1786,-6.1795,-6.1803,-6.1912,0,0,0,0,0,0,-6.1004,-6.1034,-6.1093,-6.1139,-6.1166,-6.134,-6.1242,-6.1242,-6.1287,-6.1277,-6.1327,-6.133,-6.1323,-6.1452,-6.1474,-6.1553,-6.141,-6.1779,-6.179,-6.18,-6.1902,-6.1923,-6.1942,0,0,0,0,0,-6.0994,-6.1119,-6.1097,-6.1121,-6.1241,-6.1344,-6.1359,-6.135,-6.1293,-6.1353,-6.1369,-6.1328,-6.1531,-6.1465,-6.1489,-6.1572,-6.1774,-6.1787,-6.1799,-6.1893,-6.1919,-6.1941,0,0,0,0,0,0,-6.108,-6.1124,-6.11,-6.1244,-6.1291,-6.1332,-6.1407,-6.1378,-6.1441,-6.143,-6.1414,-6.1426,-6.1554,-6.1575,-6.15,-6.1725,-6.1644,-6.1662,-6.1707,-6.1732,-6.1752,-6.1744,-6.1418,0,0,0,0,0,-6.1116,-6.1197,-6.123,-6.1354,-6.1379,-6.1389,-6.1433,-6.1422,-6.147,-6.1489,-6.1514,-6.1561,-6.1635,-6.1684,-6.1754,-6.1904,-6.1914,-6.1973,-6.1993,-6.2009,-6.2025,-6.2107,-6.2134,-6.1846,-6.1846,-6.1846,0,0,-6.119,-6.1224,-6.1276,-6.1372,-6.1407,-6.1491,-6.1406,-6.1498,-6.1559,-6.1502,-6.162,-6.164,-6.1691,-6.1828,-6.1889,-6.185,-6.2107,-6.2025,-6.2038,-6.2045,-6.2122,-6.215,-6.2174,-6.1854,-6.1853,-6.1852,0,0,-6.1368,-6.1403,-6.151,-6.1547,-6.1602,-6.1608,-6.1634,-6.168,-6.1691,-6.1809,-6.1769,-6.1841,-6.1969,-6.2008,-6.2044,-6.2238,-6.2203,-6.2261,-6.2366,-6.2446,-6.2468,-6.2488,-6.2559,-6.2584,-6.2276,-6.2277,-6.2277,0,-6.1454,-6.1579,-6.1568,-6.1664,-6.1707,-6.1661,-6.1769,-6.1805,-6.188,-6.191,-6.1865,-6.2026,-6.2057,-6.2203,-6.225,-6.2281,-6.231,-6.2256,-6.2466,-6.2486,-6.2505,-6.2572,-6.2598,-6.2283,-6.2283,-6.2282,-6.2281,0,-6.1682,-6.177,-6.1849,-6.1925,-6.1977,-6.2078,-6.2081,-6.2135,-6.212,-6.213,-6.2251,-6.2287,-6.2363,-6.2397,-6.2382,-6.2541,-6.2515,-6.2468,-6.2386,-6.2539,-6.2602,-6.2627,-6.2293,-6.2291,-6.2289,-6.2287,0,0,-6.1918,-6.1986,-6.2016,-6.205,-6.2108,-6.2175,-6.2273,-6.235,-6.2397,-6.245,-6.2533,-6.2643,-6.26,-6.2642,-6.263,-6.27,-6.2853,-6.2645,-6.2646,-6.2683,-6.3032,-6.3068,-6.3098,-6.283,-6.2835,-6.2839,-6.3028,0,-6.2101,-6.2275,-6.2268,-6.2431,-6.2512,-6.247,-6.2556,-6.26,-6.2613,-6.2683,-6.2695,-6.2775,-6.2712,-6.2737,-6.2804,-6.2821,-6.2923,-6.2807,-6.2907,-6.2911,-6.2897,-6.3131,-6.3169,-6.3346,-6.3053,-6.3057,-6.306,0,-6.2337,-6.2401,-6.2572,-6.2619,-6.2653,-6.2731,-6.2801,-6.2868,-6.2917,-6.2921,-6.2969,-6.2946,-6.3046,-6.2961,-6.3098,-6.3019,-6.3059,-6.3073,-6.308,-6.309,-6.2995,-6.3148,-6.3402,-6.3429,-6.3098,-6.3095,-6.3092,0,-6.2494,-6.2621,-6.2741,-6.2771,-6.2828,-6.2884,-6.291,-6.2955,-6.3002,-6.3062,-6.3092,-6.3163,-6.3202,-6.3257,-6.3255,-6.3193,-6.3394,-6.3309,-6.34,-6.3401,-6.3445,-6.3443,-6.3711,-6.347,-6.3469,-6.3469,-6.3468,0,-6.27,-6.2807,-6.2812,-6.2886,-6.3004,-6.2995,-6.3112,-6.3132,-6.3172,-6.3248,-6.3214,-6.3286,-6.3278,-6.335,-6.3348,-6.3463,-6.348,-6.3486,-6.3484,-6.349,-6.3489,-6.3517,-6.3505,-6.3476,-6.3474,-6.3473,-6.3471,0,-6.2895,-6.2903,-6.3031,-6.3075,-6.3089,-6.3174,-6.3211,-6.3281,-6.3291,-6.3388,-6.341,-6.3425,-6.3508,-6.3511,-6.3606,-6.3604,-6.3745,-6.3728,-6.3729,-6.3726,-6.3818,-6.381,-6.4114,-6.4154,-6.3886,-6.3888,-6.3891,0,-6.3027,-6.3108,-6.3162,-6.3211,-6.3242,-6.3321,-6.337,-6.3363,-6.3414,-6.3477,-6.3539,-6.362,-6.3684,-6.3819,-6.3838,-6.391,-6.3896,-6.3998,-6.3907,-6.391,-6.3899,-6.3895,-6.3904,-6.4016,-6.4019,-6.4021,-6.4023,0,-6.326,-6.326,-6.3331,-6.3405,-6.3464,-6.3521,-6.3574,-6.3616,-6.3615,-6.3675,-6.3761,-6.3811,-6.3909,-6.3989,-6.406,-6.4085,-6.4055,-6.4052,-6.4077,-6.4084,-6.4082,-6.4086,-6.3779,-6.4045,-6.4043,-6.4041,-6.404,-6.4039,-6.3428,-6.3499,-6.3549,-6.363,-6.3669,-6.372,-6.3788,-6.3807,-6.3879,-6.396,-6.395,-6.4046,-6.4093,-6.4185,-6.4217,-6.4291,-6.4256,-6.4292,-6.4301,-6.4311,-6.4322,-6.4069,-6.4303,-6.4303,-6.4302,-6.4302,-6.4301,0,-6.366,-6.369,-6.3765,-6.3842,-6.3905,-6.3872,-6.3929,-6.3984,-6.407,-6.4117,-6.4181,-6.428,-6.4358,-6.4384,-6.4459,-6.4514,-6.4502,-6.4534,-6.453,-6.4537,-6.4348,-6.4319,-6.4543,-6.4543,-6.4543,-6.4542,-6.4542,-6.4542,-6.3789,-6.3908,-6.3915,-6.4053,-6.4081,-6.4176,-6.4212,-6.4258,-6.4296,-6.4409,-6.4474,-6.4491,-6.4529,-6.4608,-6.4678,-6.4683,-6.4713,-6.4751,-6.4751,-6.4574,-6.455,-6.4527,-6.45,-6.4758,-6.4758,-6.4934,-6.4936,-6.4937]}]]